TimeMDT,TemperatureF,Dew PointF,Humidity,Sea Level PressureIn,VisibilityMPH,Wind Direction,Wind SpeedMPH,Gust SpeedMPH,PrecipitationIn,Events,Conditions,WindDirDegrees,DateUTC
12:53 AM,57.0,27.0,32,29.52,10.0,WNW,32.2,40.3,N/A,,Partly Cloudy,300,2012-10-17 06:53:00
1:53 AM,53.1,27.0,37,29.57,10.0,WNW,21.9,29.9,N/A,,Clear,300,2012-10-17 07:53:00
2:53 AM,44.1,37.9,79,29.63,10.0,North,16.1,-,N/A,,Clear,350,2012-10-17 08:53:00
3:53 AM,39.9,36.0,86,29.63,10.0,NNW,11.5,-,N/A,,Clear,340,2012-10-17 09:53:00
4:53 AM,37.9,35.1,89,29.67,10.0,NNW,17.3,-,N/A,,Clear,340,2012-10-17 10:53:00
5:53 AM,39.0,32.0,76,29.70,10.0,North,17.3,-,N/A,,Overcast,350,2012-10-17 11:53:00
6:53 AM,37.9,30.9,76,29.75,10.0,NNW,13.8,-,N/A,,Mostly Cloudy,330,2012-10-17 12:53:00
7:53 AM,39.9,30.9,70,29.81,10.0,NW,21.9,27.6,0.00,,Overcast,320,2012-10-17 13:53:00
8:11 AM,37.4,32.0,81,29.89,10.0,NNW,23.0,34.5,0.00,Rain,Light Rain,330,2012-10-17 14:11:00
8:18 AM,37.4,32.0,81,29.89,10.0,North,18.4,34.5,0.00,Rain,Light Rain,350,2012-10-17 14:18:00
8:53 AM,39.0,32.0,76,29.83,10.0,North,11.5,-,0.00,,Overcast,350,2012-10-17 14:53:00
9:53 AM,43.0,30.9,62,29.83,10.0,NNW,17.3,-,0.01,,Mostly Cloudy,340,2012-10-17 15:53:00
10:53 AM,46.9,26.1,44,29.83,10.0,NNW,27.6,33.4,N/A,,Scattered Clouds,330,2012-10-17 16:53:00
11:53 AM,50.0,23.0,35,29.81,10.0,NW,21.9,29.9,N/A,,Mostly Cloudy,310,2012-10-17 17:53:00
12:53 PM,53.1,14.0,21,29.78,10.0,NW,33.4,40.3,N/A,,Partly Cloudy,320,2012-10-17 18:53:00
1:53 PM,54.0,10.9,18,29.77,10.0,NNW,25.3,35.7,N/A,,Clear,330,2012-10-17 19:53:00
2:53 PM,54.0,12.0,19,29.79,10.0,NNW,25.3,40.3,N/A,,Clear,330,2012-10-17 20:53:00
3:53 PM,54.0,10.0,17,29.79,10.0,NW,28.8,36.8,N/A,,Clear,320,2012-10-17 21:53:00
4:53 PM,54.0,8.1,16,29.79,10.0,NNW,31.1,40.3,N/A,,Clear,330,2012-10-17 22:53:00
5:53 PM,51.1,5.0,15,29.81,10.0,NNW,29.9,39.1,N/A,,Clear,330,2012-10-17 23:53:00
6:53 PM,44.1,14.0,30,29.87,10.0,North,13.8,-,N/A,,Clear,360,2012-10-18 00:53:00
7:53 PM,36.0,15.1,43,29.91,10.0,North,10.4,-,N/A,,Clear,350,2012-10-18 01:53:00
8:53 PM,35.1,15.1,44,29.96,10.0,North,4.6,-,N/A,,Clear,350,2012-10-18 02:53:00
9:53 PM,36.0,16.0,44,29.97,10.0,North,10.4,-,N/A,,Clear,350,2012-10-18 03:53:00
10:53 PM,32.0,16.0,52,29.99,10.0,NNW,11.5,-,N/A,,Clear,340,2012-10-18 04:53:00
11:53 PM,32.0,17.1,54,30.01,10.0,North,13.8,-,N/A,,Clear,350,2012-10-18 05:53:00